Probability
65 61 81 84 87 84 84 84 84 71 74 71 61 55 35 32 29 29 19 10 13 10 6 6 10 10 3 3 3 3 3 3 3 3 0 3 3 3 0 3 0 3 3
71 61 84 84 84 81 81 81 81 74 74 77 65 55 42 42 32 26 13 10 13 6 10 16 13 6 3 6 3 3 3 0 0 0 0 0 0 0 0 3 3 3 3
71 65 81 84 81 77 81 81 77 77 77 77 65 58 48 48 42 29 19 23 19 13 16 13 13 10 6 3 3 0 0 0 0 0 0 0 0 0 0 3 3 3 3
65 65 65 81 77 74 74 71 71 74 74 74 71 61 45 42 35 26 23 16 13 13 13 13 13 10 0 0 0 0 0 0 0 0 0 0 0 0 0 3 3 3 3
55 61 68 81 74 74 74 68 65 65 65 71 71 58 48 45 39 29 23 19 23 26 16 10 6 0 0 0 0 0 0 0 0 0 0 0 0 0 0 0 0 3 3
42 52 65 81 74 71 71 65 65 68 65 61 68 61 52 45 39 26 29 26 19 19 19 3 0 0 0 0 0 0 0 0 0 0 0 0 0 0 0 0 0 0 0
39 52 65 77 74 71 71 61 65 68 65 61 55 55 45 45 35 29 26 19 19 19 10 0 0 0 0 0 0 0 0 0 0 0 0 0 0 0 3 3 0 0 0
26 45 55 81 71 71 65 58 61 71 65 58 55 48 42 39 35 26 16 19 19 10 3 0 0 0 0 0 0 0 0 0 0 0 0 0 0 3 0 0 0 0 0
26 29 39 42 52 58 58 58 58 65 65 58 55 52 35 32 29 23 19 13 16 6 3 0 0 0 0 0 0 0 0 0 0 0 0 0 0 0 0 0 0 0 0
19 23 23 32 29 32 35 45 45 35 39 35 32 23 13 10 10 10 6 6 3 3 0 0 0 0 0 0 0 0 0 0 0 0 0 0 0 0 0 0 0 0 0
16 16 13 23 26 26 16 13 16 26 19 19 19 3 0 3 6 3 0 0 0 0 0 0 0 0 0 0 0 0 0 0 0 0 0 0 0 0 0 0 0 0 0
19 13 13 16 23 19 16 13 13 16 10 10 10 0 0 0 0 0 0 0 0 0 0 0 0 0 0 0 0 0 0 0 0 0 0 0 0 0 0 0 0 0 0
13 13 13 13 16 13 10 6 10 10 10 10 3 0 0 0 0 0 0 0 0 0 0 0 0 0 0 0 0 0 0 0 0 0 0 0 0 0 0 0 0 0 0
10 16 13 6 10 10 6 6 6 6 3 3 0 0 0 0 0 0 0 0 0 0 0 0 0 0 0 0 0 0 0 0 0 0 0 0 0 0 0 0 0 0 0
6 10 10 6 3 6 6 3 6 3 0 3 0 0 0 0 0 0 0 0 0 0 0 0 0 0 0 0 0 0 0 0 0 0 0 0 0 0 0 0 0 0 0
3 6 6 6 3 6 3 3 3 0 0 0 0 0 0 0 0 0 0 0 0 0 0 0 0 0 0 0 0 0 0 0 0 0 0 0 0 0 0 0 0 0 0
0 0 0 3 3 6 3 0 0 0 0 0 0 0 0 0 0 0 0 0 0 0 0 0 0 0 0 0 0 0 0 0 0 0 0 0 0 0 0 0 0 0 0
0 0 0 3 0 0 0 0 0 0 0 0 0 0 0 0 0 0 0 0 0 0 0 0 0 0 0 0 0 0 0 0 0 0 0 0 0 0 0 0 0 3 3
3 0 0 0 0 0 0 0 0 0 0 0 0 0 0 0 0 0 0 0 0 0 0 0 0 0 0 0 0 0 0 0 0 0 0 0 0 0 0 0 0 0 0
0 0 0 0 0 0 0 0 0 0 0 0 0 0 0 0 3 0 0 3 0 0 0 0 0 0 0 0 0 0 0 0 0 0 0 0 0 0 0 0 0 0 0
0 0 0 0 0 0 0 0 0 0 0 0 0 0 0 0 0 0 0 0 0 0 0 0 0 0 0 0 0 0 0 0 0 0 0 0 0 0 0 0 0 0 0
0 0 0 0 0 0 0 0 0 0 0 0 0 0 0 0 0 0 0 0 0 0 0 0 0 0 0 0 0 0 0 0 0 0 0 0 0 0 0 0 0 0 0
0 0 0 0 0 0 0 0 0 0 0 0 0 0 0 0 0 3 0 0 0 0 0 0 0 0 0 0 0 0 0 0 0 0 0 0 0 0 0 0 0 0 0
0 0 0 0 0 0 0 0 0 0 0 0 0 0 0 0 3 3 0 0 0 0 0 0 0 0 0 0 0 0 0 0 0 0 0 0 0 0 0 0 0 0 0
0 0 0 0 0 0 0 0 0 0 0 0 0 0 0 0 0 0 0 0 0 0 0 0 0 0 0 0 0 0 0 0 0 0 0 0 0 0 0 0 0 0 0
0 0 0 0 0 0 0 0 0 0 0 0 0 0 0 0 0 0 0 0 0 0 0 0 0 0 0 0 0 0 0 0 0 0 0 0 0 0 0 0 0 0 0
Height
5847 5850 5852 5855 5858 5861 5863 5865 5867 5869 5870 5871 5872 5873 5874 5875 5876 5877 5878 5878 5879 5880 5880 5881 5881 5881 5881 5881 5882 5882 5882 5882 5883 5883 5883 5883 5883 5883 5883 5883 5883 5882 5881
5841 5845 5847 5851 5854 5857 5859 5862 5864 5866 5868 5869 5870 5871 5872 5873 5874 5875 5876 5877 5878 5879 5879 5880 5880 5880 5881 5881 5881 5881 5882 5882 5882 5882 5883 5883 5883 5883 5883 5883 5882 5882 5881
5835 5839 5842 5846 5849 5852 5855 5858 5860 5862 5865 5866 5868 5869 5870 5871 5873 5874 5875 5876 5876 5877 5878 5878 5879 5879 5880 5880 5880 5881 5881 5881 5881 5882 5882 5882 5882 5882 5882 5882 5882 5881 5881
5829 5834 5837 5841 5844 5847 5850 5853 5856 5859 5861 5863 5865 5866 5868 5869 5870 5872 5873 5874 5875 5876 5876 5877 5878 5878 5879 5879 5879 5880 5880 5880 5881 5881 5881 5881 5882 5881 5881 5881 5881 5880 5880
5822 5827 5831 5835 5839 5842 5846 5849 5852 5855 5857 5860 5862 5863 5865 5866 5868 5869 5871 5872 5873 5874 5875 5875 5876 5877 5877 5878 5878 5878 5879 5879 5880 5880 5880 5880 5880 5880 5880 5880 5880 5879 5878
5815 5821 5825 5829 5833 5837 5840 5844 5847 5850 5853 5856 5858 5860 5862 5863 5865 5867 5868 5869 5870 5872 5872 5873 5874 5875 5875 5876 5877 5877 5878 5878 5879 5879 5879 5879 5879 5879 5879 5879 5878 5878 5877
5808 5814 5818 5822 5827 5831 5835 5839 5842 5845 5849 5851 5854 5856 5858 5860 5862 5864 5865 5867 5868 5869 5870 5871 5872 5873 5873 5874 5875 5875 5876 5876 5877 5877 5877 5877 5877 5877 5877 5877 5877 5876 5875
5799 5806 5811 5816 5821 5825 5829 5833 5837 5840 5844 5847 5850 5852 5854 5856 5858 5860 5862 5864 5865 5866 5868 5869 5870 5871 5871 5872 5873 5873 5874 5874 5875 5875 5875 5875 5875 5875 5875 5875 5874 5874 5873
5791 5798 5804 5809 5814 5819 5823 5828 5831 5835 5838 5842 5845 5848 5850 5852 5855 5857 5859 5860 5862 5863 5865 5866 5867 5868 5869 5870 5870 5871 5872 5872 5873 5873 5873 5873 5873 5873 5873 5872 5872 5871 5871
5782 5789 5796 5801 5807 5812 5817 5821 5826 5829 5833 5837 5840 5843 5846 5848 5850 5853 5855 5857 5858 5860 5862 5863 5864 5865 5866 5867 5868 5869 5869 5870 5870 5871 5871 5871 5871 5871 5870 5870 5869 5869 5868
5773 5781 5788 5793 5799 5805 5810 5815 5819 5823 5827 5831 5835 5838 5841 5844 5846 5849 5851 5853 5855 5857 5858 5860 5861 5862 5863 5864 5865 5866 5866 5867 5868 5868 5868 5868 5868 5868 5868 5867 5866 5866 5865
5764 5772 5779 5784 5791 5797 5803 5808 5813 5818 5822 5826 5830 5833 5836 5839 5842 5844 5847 5849 5851 5853 5855 5856 5858 5859 5860 5861 5862 5862 5863 5864 5864 5865 5865 5865 5865 5865 5864 5864 5863 5862 5861
5753 5762 5770 5776 5783 5790 5796 5802 5807 5812 5816 5820 5824 5828 5831 5834 5837 5840 5842 5845 5847 5849 5851 5852 5854 5855 5856 5857 5858 5859 5860 5860 5861 5861 5861 5861 5861 5861 5861 5860 5860 5859 5858
5741 5751 5760 5767 5775 5782 5788 5794 5800 5805 5810 5814 5818 5822 5826 5829 5832 5835 5838 5840 5843 5845 5846 5848 5849 5851 5852 5853 5854 5855 5856 5856 5857 5857 5857 5857 5857 5857 5856 5856 5855 5855 5854
5731 5741 5750 5759 5767 5774 5781 5787 5792 5797 5803 5808 5812 5816 5820 5824 5827 5830 5833 5835 5838 5840 5841 5843 5845 5846 5847 5849 5850 5851 5851 5852 5852 5853 5853 5853 5853 5852 5852 5851 5851 5850 5849
5721 5732 5741 5750 5758 5766 5773 5779 5785 5790 5796 5801 5805 5810 5813 5817 5821 5824 5827 5830 5832 5834 5836 5838 5840 5841 5843 5844 5845 5846 5847 5847 5847 5848 5848 5848 5848 5847 5847 5846 5846 5845 5844
5712 5722 5732 5741 5750 5757 5764 5771 5777 5783 5789 5794 5799 5803 5807 5811 5815 5818 5821 5824 5826 5829 5831 5832 5834 5836 5837 5839 5840 5841 5841 5842 5842 5843 5843 5843 5842 5842 5842 5841 5840 5839 5838
5702 5713 5722 5732 5741 5749 5756 5762 5770 5775 5781 5787 5791 5796 5800 5804 5808 5811 5814 5817 5820 5822 5825 5827 5828 5830 5832 5833 5834 5835 5836 5836 5837 5837 5837 5837 5837 5836 5836 5835 5834 5833 5832
5694 5704 5714 5724 5733 5741 5748 5754 5761 5767 5773 5779 5784 5789 5793 5797 5801 5805 5808 5810 5813 5816 5818 5820 5822 5824 5825 5827 5828 5829 5829 5830 5830 5831 5831 5831 5830 5830 5829 5829 5828 5827 5825
5686 5696 5707 5716 5726 5733 5740 5746 5753 5759 5765 5771 5776 5781 5786 5790 5794 5797 5800 5803 5806 5809 5811 5814 5815 5817 5819 5820 5821 5822 5823 5823 5824 5824 5824 5824 5823 5823 5822 5822 5821 5820 5819
5681 5690 5699 5709 5718 5726 5733 5739 5745 5751 5757 5763 5769 5773 5778 5782 5786 5789 5792 5796 5799 5802 5804 5806 5808 5810 5811 5813 5813 5814 5815 5816 5816 5817 5817 5816 5816 5815 5815 5814 5814 5813 5812
5676 5685 5693 5702 5710 5718 5726 5732 5738 5744 5750 5755 5760 5765 5770 5774 5778 5781 5784 5788 5791 5794 5796 5798 5800 5802 5803 5805 5806 5806 5807 5808 5809 5809 5809 5808 5808 5807 5807 5806 5805 5804 5804
5673 5681 5688 5696 5704 5712 5718 5725 5730 5736 5741 5747 5752 5757 5762 5766 5769 5773 5776 5779 5782 5785 5787 5790 5791 5793 5795 5796 5797 5798 5798 5800 5800 5801 5800 5800 5799 5799 5798 5797 5797 5796 5795
5670 5678 5684 5691 5699 5706 5712 5718 5724 5729 5735 5741 5745 5749 5753 5757 5761 5764 5767 5770 5773 5775 5778 5780 5782 5784 5785 5787 5788 5789 5789 5790 5791 5791 5792 5791 5791 5790 5790 5789 5788 5787 5786
5667 5674 5681 5687 5694 5701 5707 5713 5717 5723 5728 5733 5737 5741 5745 5748 5752 5755 5758 5761 5763 5766 5768 5770 5772 5774 5775 5777 5778 5779 5779 5780 5780 5781 5782 5782 5782 5781 5780 5780 5779 5778 5776
5665 5672 5678 5684 5689 5695 5701 5706 5711 5716 5720 5725 5729 5733 5736 5739 5743 5745 5748 5751 5753 5755 5757 5759 5761 5763 5764 5766 5767 5768 5769 5770 5771 5770 5771 5772 5772 5772 5771 5770 5769 5768 5767
Wind_Speed
34 33 32 30 28 26 24 23 21 19 17 16 15 14 14 13 12 12 11 10 9 7 6 6 5 4 4 3 3 3 3 3 2 2 1 0 1 2 3 4 5 6 8
35 34 34 32 31 29 27 25 23 21 19 18 17 16 15 15 14 13 12 11 10 9 8 7 6 6 5 4 4 4 3 3 3 2 2 2 2 3 3 4 6 7 8
36 35 35 34 33 31 29 28 26 24 21 20 18 17 17 16 15 14 13 12 11 10 9 9 8 7 6 6 5 5 5 4 4 3 4 3 3 4 4 5 6 7 8
37 36 36 36 35 33 31 30 28 26 24 22 20 19 18 17 17 16 15 14 13 12 11 10 9 8 8 7 7 6 6 5 5 5 4 4 5 5 5 6 7 8 9
39 37 38 38 37 35 33 32 30 28 26 24 22 21 20 19 18 17 16 15 14 13 12 11 11 10 9 9 8 8 7 7 6 6 6 6 6 6 6 7 7 9 10
41 39 39 40 39 37 35 34 32 30 28 26 24 23 22 21 20 19 18 17 16 15 14 13 12 11 11 10 10 9 8 8 8 7 7 7 7 7 8 8 9 10 11
44 42 41 41 41 39 38 35 34 32 30 28 26 25 23 22 21 20 19 18 18 17 15 14 13 13 12 11 11 10 9 9 9 9 9 9 9 9 9 9 10 11 12
46 44 43 42 42 41 40 37 36 34 32 30 29 27 25 24 23 22 21 20 19 18 17 15 14 14 13 12 12 12 11 10 10 10 10 10 10 10 10 11 11 12 13
49 46 44 44 44 43 42 39 37 36 34 32 31 29 27 25 24 23 22 21 20 19 18 17 16 15 14 13 13 13 12 12 11 11 11 11 11 11 11 12 13 13 14
51 49 46 46 45 44 43 42 40 37 36 34 32 30 29 27 26 24 23 22 21 20 19 18 17 16 15 15 14 14 13 13 13 13 12 12 12 13 13 13 14 15 16
53 51 49 48 47 46 45 43 41 39 37 36 34 32 30 29 27 26 24 24 22 21 20 19 19 18 17 17 16 15 15 15 15 14 14 14 14 14 14 15 16 16 17
56 53 51 50 49 47 46 45 43 41 39 37 35 33 32 30 28 27 26 25 23 22 22 21 20 20 19 18 18 17 17 16 16 16 16 15 16 16 16 17 17 18 19
57 56 52 50 50 49 47 46 45 42 40 38 37 35 33 31 30 28 27 26 25 24 23 22 22 21 20 20 20 19 19 18 18 18 18 18 18 18 19 19 19 20 21
58 57 55 52 51 51 49 48 46 44 42 40 38 36 34 33 31 30 29 28 26 25 25 24 23 23 22 22 21 21 21 20 20 20 20 20 20 20 20 21 21 22 22
58 58 56 53 53 51 50 49 48 46 44 42 40 38 36 34 33 32 30 29 28 27 26 25 25 24 24 24 23 23 22 22 22 22 22 22 22 22 22 23 23 24 24
58 59 57 54 52 52 50 50 48 46 44 43 41 39 38 37 35 34 32 31 30 29 28 27 27 26 26 25 25 25 24 24 24 24 24 24 24 24 25 25 25 26 26
57 57 57 56 54 54 53 51 49 47 46 44 42 41 39 38 37 36 34 33 32 31 30 29 29 28 27 27 27 27 27 27 26 26 26 26 26 27 27 27 27 28 29
56 56 55 55 54 54 52 51 50 49 47 45 43 42 40 40 38 37 36 35 34 33 32 31 30 29 29 29 29 29 29 29 29 29 29 29 29 29 29 30 30 30 31
53 55 54 53 54 54 52 51 51 49 48 46 44 43 42 41 40 39 38 37 36 35 34 33 33 32 32 31 31 31 31 31 31 31 32 32 32 32 32 32 32 32 32
51 53 56 53 52 53 52 51 50 50 49 48 46 45 44 42 41 41 40 39 38 37 36 35 34 34 34 34 34 34 34 34 34 34 34 34 34 34 34 33 34 34 34
50 51 55 53 51 52 52 50 50 49 48 48 48 46 45 42 42 42 41 40 40 39 37 37 36 36 36 36 36 36 36 36 36 36 36 36 36 36 37 37 36 35 35
49 50 53 52 51 52 51 49 50 49 47 47 47 46 44 43 43 43 42 41 40 40 39 39 39 38 38 37 38 38 38 37 37 37 37 37 38 38 38 37 37 37 36
45 47 49 52 51 50 48 46 46 46 46 45 46 46 45 44 44 44 44 43 42 42 42 41 41 41 40 40 40 40 40 39 38 37 37 38 38 38 37 37 37 37 37
41 43 45 46 47 48 48 45 43 45 45 45 45 45 45 44 45 46 45 44 44 44 43 44 44 43 43 43 42 42 41 41 40 39 39 39 39 39 38 38 38 39 40
37 39 38 39 42 44 45 43 41 43 44 44 45 45 46 45 45 45 45 45 44 45 46 46 45 45 45 45 45 45 44 43 43 42 42 41 41 40 40 39 40 40 41
34 35 35 36 38 40 42 41 40 41 43 42 44 43 43 45 45 45 46 46 47 47 48 48 47 48 48 47 47 46 45 44 45 45 44 43 43 42 41 40 41 42 42
Wind_Direction
233 233 234 234 234 234 234 234 236 237 238 240 242 241 240 240 241 240 237 236 235 237 241 240 238 237 233 228 223 216 209 208 210 207 201 236 328 345 353 358 1 2 3
235 232 232 233 232 232 232 233 234 236 237 238 240 240 239 239 240 240 237 237 237 239 243 242 240 240 237 236 234 229 225 227 231 236 245 262 285 307 325 340 347 350 353
236 233 231 232 231 231 231 232 233 235 236 237 239 239 239 239 239 239 238 238 238 240 244 243 241 241 240 241 240 237 236 238 241 247 255 266 280 295 312 326 334 340 342
236 234 232 231 231 231 231 231 232 233 235 236 237 238 238 238 239 239 239 239 240 242 245 245 242 242 244 245 244 240 240 243 247 251 257 268 280 289 303 316 324 330 333
236 234 231 231 231 230 230 231 231 232 234 235 236 237 238 238 239 239 239 240 240 242 244 246 243 244 245 246 245 242 243 246 249 254 260 269 278 286 297 306 315 321 325
236 233 231 230 230 230 229 230 230 230 232 234 235 236 237 237 239 240 240 241 241 242 244 245 245 246 247 246 245 244 245 248 251 256 263 269 277 284 292 300 308 314 319
235 233 231 230 229 229 228 229 229 229 231 233 234 234 235 236 237 239 241 242 242 243 244 245 247 247 247 246 245 245 246 250 253 256 262 269 276 283 289 296 303 309 314
234 232 230 229 228 228 228 228 228 229 230 231 232 233 234 235 237 238 241 242 243 243 244 244 246 247 248 247 246 246 248 251 254 258 263 268 274 281 287 293 299 304 309
232 231 229 228 227 227 227 227 227 228 229 230 231 233 234 236 236 238 240 242 243 244 244 244 245 247 248 248 247 248 251 254 257 260 264 269 274 280 285 291 297 301 305
230 230 228 227 226 226 226 226 227 227 229 229 231 232 233 235 236 237 240 241 243 244 244 245 246 247 248 249 249 250 252 256 259 262 266 269 273 279 284 289 294 298 302
227 227 226 226 224 224 225 226 226 226 228 229 231 232 233 235 237 238 240 241 243 244 245 246 247 247 249 250 250 252 254 257 261 263 266 269 273 277 282 287 292 296 300
226 226 226 224 224 223 224 225 226 226 228 229 231 232 233 235 236 238 240 242 243 244 246 248 248 248 249 250 252 253 256 259 262 264 267 270 273 277 281 286 291 294 298
224 224 223 223 222 222 222 224 225 226 228 229 231 232 233 235 236 238 240 242 243 245 246 248 248 249 250 251 253 255 257 260 262 265 267 270 274 278 281 285 289 292 295
223 221 220 220 220 221 222 223 225 226 227 228 230 232 233 235 237 238 239 241 243 245 247 248 249 250 251 252 254 257 259 261 263 264 267 271 274 277 281 285 288 290 293
220 219 218 217 219 220 221 222 224 225 226 228 231 232 234 235 237 239 240 242 244 245 246 248 250 251 252 254 256 258 260 262 264 266 269 272 275 278 281 284 287 290 292
217 217 216 214 218 219 220 222 222 223 225 227 229 232 234 236 238 239 241 242 244 245 247 249 250 251 252 254 256 257 260 262 264 267 270 272 276 279 281 284 287 289 291
215 216 216 215 216 218 220 221 223 224 225 227 228 231 235 237 237 239 241 242 244 246 247 248 249 251 253 255 257 258 260 263 266 268 270 272 275 279 281 283 285 287 289
213 214 214 215 216 217 220 221 222 225 226 227 228 230 234 236 237 239 241 242 244 246 248 249 250 251 254 257 258 259 261 264 267 269 271 273 275 278 281 282 284 285 288
211 212 213 212 214 217 219 219 223 224 224 226 228 230 232 236 238 239 241 242 244 246 248 249 250 252 255 258 260 261 262 265 268 270 272 274 275 277 280 281 283 285 287
210 211 212 211 213 216 218 220 223 224 224 227 229 232 233 236 240 241 242 244 245 247 249 251 252 253 256 258 260 262 264 266 268 270 272 274 276 277 279 280 283 285 286
210 210 211 212 213 215 218 221 222 224 226 230 231 234 235 237 240 241 243 245 246 248 249 251 252 255 257 260 261 263 264 266 268 270 272 274 276 278 279 279 281 284 285
210 212 212 214 216 216 218 220 222 224 227 229 231 233 236 239 241 241 243 246 247 248 249 251 253 256 258 260 262 263 265 267 269 272 274 275 276 278 280 280 282 284 285
210 211 212 213 214 217 219 219 221 224 226 230 232 235 237 240 242 242 244 246 248 250 251 252 255 257 259 260 262 264 267 268 270 271 272 274 276 278 280 281 282 284 285
211 212 213 212 215 218 220 222 225 226 227 230 235 237 238 242 244 245 246 247 249 250 251 253 255 258 259 261 263 265 267 268 269 270 271 273 276 278 279 280 282 283 284
212 211 212 214 218 220 222 223 225 226 228 232 236 237 239 242 245 247 248 249 251 252 254 255 257 259 261 262 263 264 265 267 268 270 271 272 274 276 278 279 281 282 283
213 211 215 220 222 223 223 226 230 232 231 232 237 241 244 245 247 250 251 251 252 254 255 257 258 260 262 263 263 264 265 266 267 269 270 271 272 274 276 279 279 281 282